Permanent Life Insurance - Why?

LundgreenHermansen7964 | 2022.02.14 19:48 | 조회 8
"If we still cannot afford it"That I am attempting to decrease my charges considering that the economy downturn and I've a fuel hog and that I am looking for if my car insurance is substantial and when
twitter facebook me2day 요즘
1,427,663개(31822/71384페이지)
LECTURE
번호 제목 글쓴이 조회 날짜
791243 Stop Worrying And Start Living - Read Mo KristiansenValentin8580 6 2022.02.14 19:59
791242 Web Design Advice: What You Need To Know NoelYang2836 6 2022.02.14 19:59
791241 Is Peanut Butter Helpful For Cats VistisenKlinge7355 7 2022.02.14 19:59
791240 5 Effective Tips To Win Betting Exchange IngramFriedman1566 3 2022.02.14 19:59
791239 The Wide World Of Pet Cats Is Easy To Co PetersonVognsen0860 3 2022.02.14 19:59
791238 Portfolio Basics For Website Students: A GreeneHarbo1921 7 2022.02.14 19:59
791237 Ekologia I Kontrola Zwierząt. Weryfikuje HamrickOrtiz4438 6 2022.02.14 19:59
791236 AFFECTING FACTORS OF THE OPTION TREATMEN PuckettSantana3754 5 2022.02.14 19:59
791235 Smallmouth Bass Lures 사진 MouridsenBehrens8655 6 2022.02.14 19:59
791234 How To Play video Clip Poker Games ParkerLeblanc4639 5 2022.02.14 19:59
791233 Best Video Card To Get AtkinsHood1322 5 2022.02.14 19:59
791232 Biedronka Odrzuca Oskarżenia. Jeronimo M SalinasErnst9926 5 2022.02.14 19:59
791231 10 Reasons Abraham Lincoln Would Be Nice AbrahamsenLykkegaard9767 58 2022.02.14 19:58
791230 Scholarship for young students with Pass LesterLindholm4287 288 2022.02.14 19:58
791229 Metode Menyadari Peraturan Main Judi Onl MartinezStack0724 12 2022.02.14 19:58
791228 Ten No Value Ways To Get Extra With Cat AlvaradoAlbright1504 7 2022.02.14 19:58
791227 Dịch Vụ Sửa Máy Lạnh đáng Tin Tưởng Tại 사진 MelvinCrosby5614 7 2022.02.14 19:58
791226 Es Builder RahbekMejia9575 5 2022.02.14 19:58
791225 Cty Sửa Máy Rét Mướt Uy Tín Tại Thuận An TarpThrane8182 6 2022.02.14 19:58
791224 Web Design Advice: What You Need To Know AyersNyborg3746 7 2022.02.14 19:58